Location: Unspecified
(49.8670°N, 0.0000°E)
Time: 20:51:00
(UTC+00:00)

S-56A Canister/Altair - Pass Details

Date: 18 June 2019
Orbit: 632 x 2500 km, 38.9° (Epoch: 15 July)

Event Time Altitude Azimuth Distance (km) Brightness Sun altitude
Rises 17:47:29 0° 234° (SW) 4,314 12.0 19.8°
Reaches altitude 10° 17:51:21 10° 222° (SW) 3,010 11.0 19.2°
Maximum altitude 17:56:45 24° 172° (S) 1,766 9.3 18.4°
Drops below altitude 10° 18:00:58 10° 118° (ESE) 2,287 9.4 17.7°
Sets 18:03:29 0° 104° (ESE) 3,074 10.0 17.3°
